Home > Weather > Ehingen (Donau) > Past weeks

Flag for Germany Past Weather in Ehingen (Donau), Baden-Württemberg, Germany — Yesterday and Last 2 Weeks

Now
55 °F

Broken clouds.


Feels Like: 55 °F
Forecast: 53 / 64 °F
Wind: 5 mph from Southwest

Location: Laupheim Airport

Current Time: Jun 1, 2016 at 9:35:32 AM

Latest Report: Jun 1, 2016 at 8:20 AM


Visibility: N/A

Pressure: 29.98 "Hg (28.22 "Hg at 508m altitude)

Humidity: 94%

Dew Point: 54 °F

Location of Ehingen (Donau)Location

Past Weather in Ehingen (Donau) — Graph

°F

Ehingen (Donau) Temperature Yesterday

Maximum temperature yesterday: 70 °F (at 4:20 PM)
Minimum temperature yesterday: 52 °F (at 3:20 AM)
Average temperature yesterday: 58 °F

High & Low Weather Summary for the Past Weeks

 TemperatureHumidityPressure
High81 °F (May 22, 2:20 PM)100% (May 20, 4:59 AM)30.18 "Hg (May 20, 4:59 AM)
Low41 °F (May 18, 4:20 AM)30% (May 22, 5:20 PM)29.62 "Hg (May 29, 4:20 PM)
Average57 °F77%29.94 "Hg
* Reported May 17 8:20 AM — Jun 1 8:20 AM, Ehingen (Donau), Weather by CustomWeather, © 2016

Note: Actual official high and low records may vary slightly from our data, if they occured in-between our weather recording intervals... More about our weather records

Advertising

Ehingen (Donau) Weather History for the Previous 24 Hours

Scroll right to see more
 ConditionsComfort  
Time TempWeatherWind HumidityBarometerVisibility
8:20 AM
Wed, Jun 1
55 °FBroken clouds.5 mph94%29.98 "HgN/A
7:20 AM54 °FPartly sunny.5 mph94%29.98 "HgN/A
6:20 AM54 °FPartly cloudy.6 mph94%29.95 "HgN/A
5:20 AM54 °FPassing clouds.7 mph94%29.95 "HgN/A
4:20 AM54 °FPassing clouds.6 mph94%29.95 "HgN/A
3:20 AM54 °FLight rain. Passing clouds.8 mph100%29.95 "HgN/A
2:20 AM54 °FRain. Partly cloudy.5 mph100%29.98 "Hg5 mi
1:20 AM54 °FLight rain. Partly cloudy.6 mph100%29.98 "Hg5 mi
12:20 AM54 °FLight rain. Partly cloudy.9 mph100%29.95 "HgN/A
11:20 PM
Tue, May 31
54 °FLight rain. Mostly cloudy.2 mph100%29.95 "HgN/A
10:20 PM55 °FRain. Mostly cloudy.6 mph94%29.95 "HgN/A
9:20 PM55 °FRain. Partly sunny.8 mph94%29.92 "Hg6 mi
8:20 PM55 °FThunderstorms. Partly sunny.3 mph94%29.92 "Hg5 mi
7:20 PM55 °FThunderstorms. Broken clouds.7 mph88%29.89 "HgN/A
6:20 PM64 °FBroken clouds.5 mph64%29.86 "HgN/A
5:20 PM68 °FPartly sunny.5 mph53%29.86 "HgN/A
4:20 PM70 °FPartly sunny.3 mph46%29.86 "HgN/A
3:20 PM66 °FBroken clouds.5 mph52%29.89 "HgN/A
2:20 PM66 °FBroken clouds.6 mph52%29.89 "HgN/A
1:20 PM64 °FBroken clouds.7 mph56%29.89 "HgN/A
12:20 PM63 °FBroken clouds.7 mph64%29.89 "HgN/A
11:20 AM61 °FPartly sunny.9 mph68%29.89 "HgN/A
10:20 AM59 °FPartly sunny.9 mph72%29.89 "HgN/A
9:20 AM59 °FPartly sunny.8 mph72%29.89 "HgN/A
Weather by CustomWeather, © 2016

See weather overviewHow to use our weather pages